Weather in Merezha

Russia / Vologda Oblast     59°01′35″N   36°23′53″E
temp.,
°C
wind,
m/s
gust,
m/s
humid.,
%
clouds,
%
prec.,
mm/h
press.,
hPa
HPBL,
m
16 june, wed
wed1600:00+15nw2581100 0.0 1010166
03:00+14wnw2688100 0.0 1011170
06:00+14nw366418 0.0 1012299
09:00+18wnw46420 0.0 10131484
12:00+21wnw57305 0.0 10142266
15:00+22nw582778 0.0 10142661
18:00+21wnw4731100 0.0 10152402
21:00+16nw395098 0.0 1017383
17 june, thu
thu1700:00+11w266299 0.0 101999
03:00+10wnw246819 0.0 1021106
06:00+13w246360 0.0 1022178
09:00+19w36405 0.0 10221022
12:00+23wnw463312 0.0 10222215
15:00+24wnw46290 0.0 10222235
18:00+24wnw45335 0.0 10222105
21:00+18wnw226194 0.0 102321
18 june, fri
fri1800:00+14nw117194 0.0 102510
03:00+12sw117656 0.0 102610
06:00+16wsw246610 0.0 1026128
09:00+22sw34465 0.0 1025727
12:00+26sw4537100 0.0 10241709
15:00+28wsw573465 0.0 10232053
18:00+28wsw473813 0.0 10222007
21:00+21sw39625 0.0 1022213
19 june, sat
sat1900:00+17sw29765 0.0 1023162
03:00+16sw311825 0.0 1023219
06:00+19wsw310745 0.0 1023289
09:00+25w47484 0.0 1023919
12:00+29w57345 0.0 10222150
15:00+30w46315 0.0 10212514
18:00+30w353455 0.0 10212508
21:00+24wsw245797 0.0 102271
20 june, sun
sun2000:00+19w24735 0.0 102364
03:00+18wsw22775 0.0 102329
06:00+21sw267222 0.0 1023164
09:00+26wsw3549100 0.0 1022675
12:00+29wsw463615 0.0 10212045
15:00+31wsw463242 0.0 10202454
18:00+30wsw45355 0.0 10192492
21:00+23wsw24605 0.0 101958